Orbital Elements at Epoch 2459200.5 (2020-Dec-17.0) TDB
Reference: JPL 23 (heliocentric ecliptic J2000)
Element | Value | Uncertainty (1-sigma) | Units |
e | .1477443625899035 | 4.7186e-08 | |
a | 2.524995238370504 | 1.0554e-08 | au |
q | 2.151941426334913 | 1.1928e-07 | au |
i | 2.724272932165964 | 8.6829e-06 | deg |
node | 344.11822321 | 0.00010387 | deg |
peri | 84.73593212023999 | 0.00011505 | deg |
M | 125.1917462603791 | 4.6673e-05 | deg |
tp | 2458690.861218583540 (2019-Jul-26.36121858) | 0.00018996 | TDB |
period | 1465.511639468125 4.01 | 9.1884e-06 2.516e-08 | d yr |
n | .245647997808229 | 1.5402e-09 | deg/d |
Q | 2.898049050406096 | 1.2113e-08 | au |
|
| | Orbit Determination Parameters
Additional Information
|